Lake Charles Regional, LA

10:04 AM CDT on August 23, 2017 (GMT -0500)
Lake Charles Regional

Weather History for KLCH - September, 2012

Change the Weather History Date:

Tuesday, September 11, 2012

  Actual Average Record
Temperature  
Mean Temperature 77 °F 80 °F  
Max Temperature 88 °F 89 °F 100 °F (1909)
Min Temperature 65 °F 71 °F 52 °F (1907)
Degree Days  
Heating Degree Days 0 0  
Month to date heating degree days 0 0  
Since 1 July heating degree days 0 0  
Cooling Degree Days 12 15  
Month to date cooling degree days 189 176  
Year to date cooling degree days 2686 2305  
Growing Degree Days 26 (Base 50)    
Moisture  
Dew Point 64 °F    
Average Humidity 68    
Maximum Humidity 93    
Minimum Humidity 43    
Precipitation  
Precipitation 0.00 in 0.20 in 6.63 in (1982)
Month to date precipitation 0.36 2.12  
Year to date precipitation 57.41 40.34  
Snow  
Snow 0.00 in 0.00 in 0.00 in ()
Month to date snowfall 0.0 0.0  
Since 1 July snowfall 0.0 0.0  
Since 1 September snowfall 0.0 0.0  
Snow Depth 0.00 in    
Sea Level Pressure  
Sea Level Pressure 30.09 in    
Wind  
Wind Speed 6 mph (East)    
Max Wind Speed 14 mph    
Max Gust Speed 20 mph    
Visibility 10 miles    
Events      
T = Trace of Precipitation, MM = Missing Value Source: NWS Daily Summary

Daily Weather History Graph

Daily Weather History Graph

Search for Another Location

Airport or City:

Trip Planner

Search our weather history database for the weather conditions in past years. The results will help you decide how hot, cold, wet, or windy it might be!

Date:

Astronomy

Sep. 11, 2012 Rise Set
Actual Time 6:55 AM CDT 7:22 PM CDT
Civil Twilight 6:31 AM CDT 7:46 PM CDT
Nautical Twilight 6:03 AM CDT 8:14 PM CDT
Astronomical Twilight 5:34 AM CDT 8:43 PM CDT
Moon 2:29 AM CDT (9/11) 4:19 PM CDT (9/11)
Length of Visible Light 13h 15m
Length of Day
12h 27m
Waning Crescent, 21% of the Moon is Illuminated
Sep 11
Waning Crescent
Sep 15
New
Sep 22
First Quarter
Sep 29
Full
Oct 8
Last Quarter

Hourly Weather History & Observations

Time (CDT) Temp. Heat Index Dew Point Humidity Pressure Visibility Wind Dir Wind Speed Gust Speed Precip Events Conditions
12:53 AM 68.0 °F - 63.0 °F 84% 30.09 in 10.0 mi Calm Calm - N/A   Clear
1:53 AM 66.0 °F - 62.1 °F 87% 30.09 in 10.0 mi Calm Calm - N/A   Clear
2:53 AM 64.9 °F - 62.1 °F 90% 30.08 in 10.0 mi Calm Calm - N/A   Clear
3:53 AM 66.0 °F - 61.0 °F 84% 30.07 in 10.0 mi Calm Calm - N/A   Clear
4:53 AM 66.0 °F - 62.1 °F 87% 30.08 in 10.0 mi Calm Calm - N/A   Scattered Clouds
5:53 AM 64.9 °F - 61.0 °F 87% 30.09 in 10.0 mi NE 6.9 mph - N/A   Partly Cloudy
6:53 AM 64.9 °F - 61.0 °F 87% 30.10 in 10.0 mi NE 6.9 mph - N/A   Clear
7:53 AM 69.1 °F - 63.0 °F 81% 30.11 in 10.0 mi ENE 4.6 mph - N/A   Clear
8:53 AM 73.9 °F - 66.0 °F 76% 30.12 in 10.0 mi NE 5.8 mph - N/A   Clear
9:53 AM 79.0 °F - 64.0 °F 60% 30.14 in 10.0 mi East 9.2 mph - N/A   Clear
10:53 AM 82.0 °F 83.1 °F 63.0 °F 52% 30.15 in 10.0 mi East 9.2 mph - N/A   Clear
11:53 AM 84.0 °F 84.5 °F 62.1 °F 47% 30.14 in 10.0 mi ESE 12.7 mph - N/A   Clear
12:53 PM 86.0 °F 86.8 °F 63.0 °F 46% 30.12 in 10.0 mi East 11.5 mph - N/A   Clear
1:53 PM 87.1 °F 87.5 °F 62.1 °F 43% 30.10 in 10.0 mi East 12.7 mph 17.3 mph N/A   Clear
2:53 PM 87.1 °F 87.8 °F 63.0 °F 44% 30.07 in 10.0 mi East 11.5 mph 17.3 mph N/A   Clear
3:53 PM 87.1 °F 87.5 °F 62.1 °F 43% 30.06 in 10.0 mi ESE 11.5 mph - N/A   Clear
4:53 PM 87.1 °F 88.3 °F 64.0 °F 46% 30.06 in 10.0 mi Variable 6.9 mph - N/A   Scattered Clouds
5:53 PM 86.0 °F 87.3 °F 64.0 °F 48% 30.07 in 10.0 mi SE 8.1 mph - N/A   Clear
6:53 PM 82.9 °F 85.0 °F 66.0 °F 56% 30.07 in 10.0 mi ESE 6.9 mph - N/A   Clear
7:53 PM 77.0 °F - 69.1 °F 76% 30.07 in 10.0 mi SSE 3.5 mph - N/A   Clear
8:53 PM 77.0 °F - 70.0 °F 79% 30.08 in 10.0 mi Calm Calm - N/A   Partly Cloudy
9:53 PM 75.9 °F - 70.0 °F 82% 30.09 in 10.0 mi ENE 3.5 mph - N/A   Mostly Cloudy
10:53 PM 73.9 °F - 70.0 °F 87% 30.08 in 10.0 mi ENE 4.6 mph - N/A   Clear
11:53 PM 75.0 °F - 69.1 °F 82% 30.08 in 10.0 mi East 5.8 mph - N/A   Partly Cloudy